Regional Weather Roundup
Issued by NWS Upton, NY

Home | Current Version | Previous Version | Text Only | Print | Product List | Glossary On
Versions: 1 2 3 4 5 6 7 8 9 10 11 12 13 14 15 16 17 18 19 20 21 22 23 24 25 26 27
000
ASUS41 KOKX 241209
RWROKX

REGIONAL WEATHER ROUNDUP
NATIONAL WEATHER SERVICE NEW YORK NY
800 AM EDT MON JUL 24 2017

NOTE: "FAIR" INDICATES FEW OR NO CLOUDS BELOW 12,000 FEET WITH NO
SIGNIFICANT WEATHER AND/OR OBSTRUCTIONS TO VISIBILITY.

NYZ071-072-176-178-NJZ106-104-241300-
NEW YORK CITY METRO AREA

CITY           SKY/WX    TMP DP  RH WIND       PRES   REMARKS
Central Park   CLOUDY    68  67  96 VRB7      29.79S FOG
Bronx Bot Gard   N/A     66  64  94 NE7       29.78F
LaGuardia APRT LGT RAIN  70  68  93 E16       29.75F
Kennedy INTL   CLOUDY    71  70  96 E10       29.76F
Breezy Point     N/A     70 N/A N/A E15G21      N/A
Newark/Liberty CLOUDY    71  68  90 NE9       29.75F
Teterboro      LGT RAIN  69  67  93 NE8       29.76S FOG
$$

NYZ177-179-078>081-241300-
LONG ISLAND NEW YORK

CITY           SKY/WX    TMP DP  RH WIND       PRES   REMARKS
Jones Beach      N/A     70 N/A N/A E15G21      N/A
Matinecock PT    N/A     66 N/A N/A E30         N/A
Farmingdale    CLOUDY    69  67  93 E10       29.76F
MacArthur/ISP  CLOUDY    70  69  97 E10       29.76F FOG
Shirley        CLOUDY    70  69  97 VRB7      29.77F
Mt Sinai Harb    N/A     66 N/A N/A E10         N/A
Westhampton    CLOUDY    68  66  93 E8        29.79S FOG
East Hampton   CLOUDY    65  64  94 E15       29.80F
Montauk          N/A     66  65  96 E12G21    29.82F
$$

NYZ052-065-067-241300-
HUDSON VALLEY

CITY           SKY/WX    TMP DP  RH WIND       PRES   REMARKS
White Plains   LGT RAIN  64  63  94 N13G21    29.78F FOG
Larchmont Harb   N/A     66 N/A N/A NE30        N/A
Croton O-T Hud   N/A     64 N/A N/A N1          N/A
Newburgh       RAIN      61  61 100 E12G20    29.83S FOG
Montgomery     HVY RAIN  63  61  93 NE14      29.82R VSB 1
Poughkeepsie   LGT RAIN  62  59  90 N5        29.82F FOG
Albany         LGT RAIN  61  57  87 S3        29.89R
$$

NJZ001-105-106-008-010-013-015-019>022-104-241300-
NEW JERSEY

CITY           SKY/WX    TMP DP  RH WIND       PRES   REMARKS
Newark/Liberty CLOUDY    71  68  90 NE9       29.75F
Teterboro      LGT RAIN  69  67  93 NE8       29.76S FOG
Caldwell       CLOUDY    67  50  55 E10       29.77S
Somerville     CLOUDY    71  69  93 MISG      29.73F
Linden         CLOUDY    71  67  89 CALM      29.75F
Perth Amboy      N/A     72 N/A N/A E12         N/A
Sussex         RAIN      64  63  96 NE17      29.78R FOG
Andover          N/A     67  64  90 CALM      29.75F
Trenton        CLOUDY    72  71  97 SE6       29.74S
Millville      CLOUDY    73  73 100 CALM      29.76R
Atlantic City  CLOUDY    74  73  97 S5        29.75S
Wrightstown    NOT AVBL
Toms River     PTSUNNY   74  72  93 VRB3      29.76R
Belmar         CLOUDY    73  71  93 S5        29.75S
$$

PAZ047>061-062-071-241300-
EASTERN PENNSYLVANIA

CITY           SKY/WX    TMP DP  RH WIND       PRES   REMARKS
Philadelphia   CLOUDY    73  70  90 S6        29.76R
Allentown      HVY RAIN  70  66  87 NW15G21   29.77R FOG
Scranton       LGT RAIN  67  66  97 SE5       29.79F
$$

CTZ002-004>006-009-010-012-RIZ004-006-007-MAZ004-011-015-241300-
SOUTHERN NEW ENGLAND
 IN CT

CITY           SKY/WX    TMP DP  RH WIND       PRES   REMARKS
Bradley INTL   HVY RAIN  61  59  93 NE12      29.89S FOG
Hartford       RAIN      60  57  89 NE8       29.86F FOG
Danbury        HVY RAIN  61  60  97 NE9G21    29.84S FOG
Wtrbury/Oxford LGT RAIN  59  54  82 E9G17     29.84F
Bridgeport     LGT RAIN  63  59  87 NE16      29.81R
Meriden        LGT RAIN  58  56  93 NE10G18   29.85F
New Haven      LGT RAIN  61  58  90 NE14      29.82F FOG
Chester        LGT RAIN  59  57  94 NE9G15    29.84F
Groton         LGT RAIN  61  57  87 NE14      29.83F
Wilimantic     LGT RAIN  63  58  83 NE7       29.89R

 IN RI

CITY           SKY/WX    TMP DP  RH WIND       PRES   REMARKS
Providence     LGT RAIN  61  58  90 NE7       29.90S
Block Island   LGT RAIN  64  62  93 E15G25    29.84S FOG
Westerly       LGT RAIN  61  57  87 E12G20    29.85F FOG
 IN MA

CITY           SKY/WX    TMP DP  RH WIND       PRES   REMARKS
Boston         LGT RAIN  64  58  80 E14       29.94S
Worcester      LGT RAIN  58  54  86 NE8       29.95R FOG
Westfield      RAIN      60  59  96 NE8       29.90S FOG
Provincetown   LGT RAIN  63  56  78 E9        29.94S
Nantucket      CLOUDY    61  55  81 E12       29.91R
$$

ANZ330-335-338-340-345-350-353-355-241300-
COASTAL MARINE OBSERVATIONS


STATION/POSITION TIME  SKY/WX   TEMP    WIND        PRES    VSBY  WAVE
                                AIR SEA DIR/SP/G                  HT/PER
                 (UTC)          (F)     (DEG/KT/KT) (MB)    (MI)  (FT/S)
NY HARB ENTRANCE 1050            73 73  100/ 14/ 17 1006.6          5/ 5
20 S FIRE ISLAND 1150            74 76  110/ 21/ 23 1005.9          6/ 6
GREAT SOUTH BAY  1130            72 80   80/ 17/ 21   N/A
23 SSW MONTAUK P 1050            69 73              1008.6          6/ 6
15 E BARNEGAT LI 1130               76                N/A           5/ 5
HUDSON CANYON    1050            72 77  270/ 10/ 14 1007.1          5/ 5
KINGS POINT      1130            67 72   80/  5/  9 1007.8
EXECUTION ROCKS  1145            69      90/ 19/ 27   N/A
CENTRAL LI SOUND 1100            67     100/ 21/ 27   N/A           4
EASTERN LI SOUND NOT AVBL
ROBBINS REEF     1124                    90/ 13/ 16 1007.8
$$


>>>>>>>>>>>>>>>>>>>>>>>>>>>> KEY <<<<<<<<<<<<<<<<<<<<<<<<<<<
>                                                          <
>     SKY/WX - Sky Condition/Present Weather               <
>     TMP    - Temperature in Fahrenheit                   <
>     DP     - Dew Point in Fahrenheit                     <
>     RH     - Relative Humidity in Percent                <
>     WIND   - Direction (from) and Speed in MPH           <
>     PRES   - Mean Sea Level Pressure (inches of Hg)      <
>     WCI    - Wind Chill Index                            <
>     VSB    - VISIBILITY IN MILES                         <
>     HX     - HEAT INDEX                                  <
>     TC     - TEMPERATURE IN CELSIUS                      <
>     VRB    - VARIABLE WIND DIRECTION                     <
>                                                          <
>>>>>>>>>>>>>>>>>>>>>>>>>>>> KEY <<<<<<<<<<<<<<<<<<<<<<<<<<<




USA.gov is the U.S. government's official web portal to all federal, state and local government web resources and services.